Prestige Ace — H3NG — position and weather

sailwx.info

Track history (hours):
 
Tides and Currents Weather Stations Pressure Air Temp Water Temp Dewpoint Dewpoint Depression Visibility Wind Speed Wind Dir Waves Ship Positions

Prestige Ace

Last reported at 2017-Oct-19 15:00 UTC. Time now 2017-Oct-19 15:06 UTC.
Position N 31°21' E 121°39'.

Length 200 m; draft 8.1 m.

Type: Cargo ship. MMSI: 355745000.

Date/timePositionNaut miles runAvg speedWind from/ knotsBaromVisibWave heightAir tempDewpointWater temp
2017-Oct-19 15:00N 31°21' E 121°39'0 0.0
2017-Oct-19 14:30N 31°21' E 121°39'0 0.0
2017-Oct-19 14:00N 31°21' E 121°39'0 0.0
2017-Oct-19 13:30N 31°21' E 121°39'0 0.0
2017-Oct-19 13:00N 31°21' E 121°39'0 0.0
2017-Oct-19 12:27N 31°21' E 121°39'0 0.0
2017-Oct-19 12:00N 31°21' E 121°39'0 0.0
2017-Oct-19 11:27N 31°21' E 121°39'0 0.0
2017-Oct-19 11:00N 31°21' E 121°39'0 0.1
2017-Oct-19 10:30N 31°21' E 121°39'0 0.1
2017-Oct-19 10:00N 31°21' E 121°39'0 0.0
2017-Oct-19 09:30N 31°21' E 121°39'0 0.0
2017-Oct-19 09:00N 31°21' E 121°39'0 0.0
2017-Oct-19 08:30N 31°21' E 121°39'0 0.0
2017-Oct-19 08:00N 31°21' E 121°39'0 0.0
2017-Oct-19 07:30N 31°21' E 121°39'0 0.0
2017-Oct-19 07:00N 31°21' E 121°39'0 0.0
2017-Oct-19 06:30N 31°21' E 121°39'0 0.0
2017-Oct-19 06:00N 31°21' E 121°39'0 0.0
2017-Oct-19 05:30N 31°21' E 121°39'0 0.0
2017-Oct-19 05:00N 31°21' E 121°39'0 0.1
2017-Oct-19 04:30N 31°21' E 121°39'1 1.5
2017-Oct-19 04:00N 31°21' E 121°39'4 8.6
2017-Oct-19 03:30N 31°19' E 121°44'611.3
2017-Oct-19 03:00N 31°17' E 121°50'611.3
2017-Oct-19 02:30N 31°15' E 121°56'510.0
2017-Oct-19 02:00N 31°14' E 122°02'511.0
2017-Oct-19 01:30N 31°12' E 122°08'510.7
2017-Oct-19 01:00N 31°09' E 122°13'4 9.0
2017-Oct-19 00:30N 31°07' E 122°17'3 6.8
2017-Oct-19 00:00N 31°06' E 122°21'4 8.7
2017-Oct-18 23:30N 31°06' E 122°26'4 7.9
2017-Oct-18 22:59N 31°08' E 122°31'3 6.0
2017-Oct-18 22:29N 31°06' E 122°34'  
Track history (hours):
 
Tides and Currents Weather Stations Pressure Air Temp Water Temp Dewpoint Dewpoint Depression Visibility Wind Speed Wind Dir Waves Ship Positions

Prestige Ace

Last reported at 2017-Oct-19 15:00 UTC. Time now 2017-Oct-19 15:06 UTC.
Position N 31°21' E 121°39'.

Length 200 m; draft 8.1 m.

Type: Cargo ship. MMSI: 355745000.

Date/timePositionNaut miles runAvg speedWind from/ knotsBaromVisibWave heightAir tempDewpointWater temp
2017-Oct-19 15:00N 31°21' E 121°39'0 0.0
2017-Oct-19 14:30N 31°21' E 121°39'0 0.0
2017-Oct-19 14:00N 31°21' E 121°39'0 0.0
2017-Oct-19 13:30N 31°21' E 121°39'0 0.0
2017-Oct-19 13:00N 31°21' E 121°39'0 0.0
2017-Oct-19 12:27N 31°21' E 121°39'0 0.0
2017-Oct-19 12:00N 31°21' E 121°39'0 0.0
2017-Oct-19 11:27N 31°21' E 121°39'0 0.0
2017-Oct-19 11:00N 31°21' E 121°39'0 0.1
2017-Oct-19 10:30N 31°21' E 121°39'0 0.1
2017-Oct-19 10:00N 31°21' E 121°39'0 0.0
2017-Oct-19 09:30N 31°21' E 121°39'0 0.0
2017-Oct-19 09:00N 31°21' E 121°39'0 0.0
2017-Oct-19 08:30N 31°21' E 121°39'0 0.0
2017-Oct-19 08:00N 31°21' E 121°39'0 0.0
2017-Oct-19 07:30N 31°21' E 121°39'0 0.0
2017-Oct-19 07:00N 31°21' E 121°39'0 0.0
2017-Oct-19 06:30N 31°21' E 121°39'0 0.0
2017-Oct-19 06:00N 31°21' E 121°39'0 0.0
2017-Oct-19 05:30N 31°21' E 121°39'0 0.0
2017-Oct-19 05:00N 31°21' E 121°39'0 0.1
2017-Oct-19 04:30N 31°21' E 121°39'1 1.5
2017-Oct-19 04:00N 31°21' E 121°39'4 8.6
2017-Oct-19 03:30N 31°19' E 121°44'611.3
2017-Oct-19 03:00N 31°17' E 121°50'611.3
2017-Oct-19 02:30N 31°15' E 121°56'510.0
2017-Oct-19 02:00N 31°14' E 122°02'511.0
2017-Oct-19 01:30N 31°12' E 122°08'510.7
2017-Oct-19 01:00N 31°09' E 122°13'4 9.0
2017-Oct-19 00:30N 31°07' E 122°17'3 6.8
2017-Oct-19 00:00N 31°06' E 122°21'4 8.7
2017-Oct-18 23:30N 31°06' E 122°26'4 7.9
2017-Oct-18 22:59N 31°08' E 122°31'3 6.0
2017-Oct-18 22:29N 31°06' E 122°34'  

Dump ship's entire track history